User: anonymous   Login
Location: Bednik
(45.3500°N, 16.3833°E)
Time: 11:49:13
(UTC+00:00)
Language:

Cosmos 1707 Rocket - Orbit

View from above orbital plane
View from above orbital plane
View from above satellite
View from above satellite

Ground track
Ground track

The orbit data is extracted from the following two-line orbital elements,

1 16327U 85113B   20304.78003946  .00000103  00000-0  96315-5 0  9996
2 16327  82.5379  20.9444 0017643 244.6010 255.0924 14.83478619884464
Epoch (UTC): 30 October 2020 18:43:15
Eccentricity: 0.0017643
inclination: 82.5379°
perigee height: 606 km
apogee height: 631 km
right ascension of ascending node: 20.9444°
argument of perigee: 244.6010°
revolutions per day: 14.83478619
mean anomaly at epoch: 255.0924°
orbit number at epoch: 88446

The dashed part of the orbit path shows where the satellite is in the earth's shadow,  

DLR